Regional Weather Roundup
Issued by NWS

Home | Current Version | Previous Version | Text Only | Print | Product List | Glossary Off
Versions: 1 2 3 4 5 6 7 8 9 10 11 12 13 14 15 16 17 18 19 20 21 22 23 24 25 26 27 28 29 30 31 32 33 34 35 36 37 38 39 40 41 42 43 44 45 46 47 48 49 50

000
ASUS43 KLOT 031508
RWRIL

ILLINOIS REGIONAL WEATHER ROUNDUP
NATIONAL WEATHER SERVICE CHICAGO/ROMEOVILLE IL
1000 AM CDT THU SEP 03 2015

NOTE: "FAIR" INDICATES FEW OR NO CLOUDS BELOW 12,000 FEET WITH NO
SIGNIFICANT WEATHER AND/OR OBSTRUCTIONS TO VISIBILITY.

* THESE STATIONS ARE NOT UNDER NWS QUALITY CONTROL. THEY ALSO MAY NOT
  REPORT WEATHER SUCH AS PRECIPITATION OR FOG.

ILZ001-002-007-009-015-016-024-031600-
NORTHWEST ILLINOIS

CITY           SKY/WX    TMP DP  RH WIND       PRES   REMARKS
MOLINE         MOSUNNY   83  70  64 SW6       29.95S HX  87
STERLING*      SUNNY    N/A N/A N/A SW9       29.94S
SAVANNA*       SUNNY     81  69  67 S7        29.95S HX  84
$$

ILZ003-004-008-010-011-017-018-031600-
NORTH CENTRAL ILLINOIS

CITY           SKY/WX    TMP DP  RH WIND       PRES   REMARKS
ROCKFORD       SUNNY     81  70  69 SW7       29.96S HX  84
FREEPORT*      SUNNY     79  71  75 SW8       29.97S HX  82
ROCHELLE*      SUNNY     81  72  74 SW3       29.97S HX  85
DE KALB*       SUNNY     82  72  71 W8        29.97S HX  86
PERU*          SUNNY     81  68  63 W9        29.98S HX  84
$$

ILZ005-006-012>014-019>023-031600-
NORTHEAST ILLINOIS

CITY           SKY/WX    TMP DP  RH WIND       PRES   REMARKS
CHICAGO-OHARE  MOSUNNY   82  69  64 W12       29.94F HX  85
CHICAGO-MIDWAY MOSUNNY   84  68  58 W10       29.95S HX  87
AURORA         SUNNY     81  71  71 W8        29.97S HX  85
LANSING*       SUNNY     83  69  61 SW9       29.96F HX  86
JOLIET*        SUNNY     83  71  66 W7        29.97S HX  87
WAUKEGAN       SUNNY     82  69  64 W8        29.93S HX  85
DUPAGE AIRPORT SUNNY     80  69  69 SW9       29.95F HX  83
KANKAKEE*      SUNNY     84  72  66 SW9       29.99S HX  89
WHEELING       SUNNY     83  68  60 W12       29.95S HX  86
MORRIS*        SUNNY     81  70  70 SW8       29.96S HX  84
ROMEOVILLE*    SUNNY     81  68  65 SW8       29.97S HX  83
NORTHERLY ISL    N/A     82  65  56 W9          N/A  HX  84
$$

LMZ740>746-031600-
SOUTHERN LAKE MICHIGAN

STATION/POSITION SKY/WX   TEMP    WIND        PRES    VSBY  WAVE
                          AIR SEA DIR/SP/G                  HT/PER
                          (F)     (DEG/KT/KT) (MB)    (MI)  (FT/S)
SOUTHERN BUOY              73 71  230/ 10/ 12 1013.0R         1/ 3
WILMETTE HARBOR            71 59   50/  8/ 10   N/A           1
HARRISON CRIB              78     240/ 11/ 13   N/A
BURNHAM HARBOR             83     260/  3/ 11   N/A
CALUMET HARBOR             79     220/  4/ 10   N/A
BURNS HARBOR               78     210/ 10/ 13 1014.9F
MICHIGAN CITY              78     190/  9/ 10   N/A
MICHIGAN CITY 6N           76 73  240/  4/  6   N/A           1/ 2
ST. JOSEPH                 75 72  270/  8/  8   N/A           1/ 3
$$

ILZ025>027-034>036-040-047-049-050-058-095>099-031600-
WEST-CENTRAL ILLINOIS

CITY           SKY/WX    TMP DP  RH WIND       PRES   REMARKS
QUINCY         SUNNY     83  71  67 SW7       30.00S HX  87
GALESBURG*     SUNNY     82  70  68 SW8       29.98F HX  85
MACOMB*        SUNNY     83  69  63 SW7       30.01F HX  86
JACKSONVILLE*  PTSUNNY   80  73  78 S7        30.01S HX  84
PITTSFIELD*    SUNNY     83  71  66 W6        30.02S HX  88
$$

ILZ028>032-037-038-041>044-048-051>054-059>061-031600-
CENTRAL ILLINOIS

CITY           SKY/WX    TMP DP  RH WIND       PRES   REMARKS
PONTIAC        MOSUNNY   83  73  70 SW8       29.99F HX  89
BLOOMINGTON    SUNNY     83  71  66 SW13      30.02S HX  87
DECATUR        SUNNY     84  70  62 SW9       30.02S HX  88
PEORIA         SUNNY     84  69  60 SW9       29.99S HX  88
LACON*         SUNNY     80  70  71 SW6       29.98R HX  83
LINCOLN*       MOSUNNY   85  71  60 SW3       29.99F HX  90
SPRINGFIELD    MOSUNNY   85  72  65 SW7       30.00F HX  91
TAYLORVILLE    SUNNY     82  72  69 SW5       30.01F HX  87
$$

ILZ033-039-045-046-055>057-062-063-031600-
EAST-CENTRAL ILLINOIS

CITY           SKY/WX    TMP DP  RH WIND       PRES   REMARKS
CHAMPAIGN      SUNNY     84  71  65 SW8       30.02S HX  89
RANTOUL*       SUNNY     85  73  66 SW8       30.01S HX  91
MATTOON        SUNNY     84  69  60 SW5       30.02F HX  88
PARIS*         SUNNY     84  71  64 SW8       30.03F HX  89
$$

ILZ079-100>102-031600-
SOUTHWEST ILLINOIS

CITY           SKY/WX    TMP DP  RH WIND       PRES   REMARKS
ALTON          SUNNY     81  70  69 SW6       30.02F HX  84
BELLEVILLE     SUNNY     85  73  68 S1        30.01S HX  91
CAHOKIA*       SUNNY     83  69  62 S7        30.02S HX  86
SPARTA*        MOSUNNY   83  72  70 SW6       30.05R HX  88
$$

ILZ064>066-069>071-074>076-080>082-084>086-088>090-092>094-031600-
SOUTH-CENTRAL ILLINOIS

CITY           SKY/WX    TMP DP  RH WIND       PRES   REMARKS
CARBONDALE     SUNNY     83  71  67 S3        30.04S HX  87
CAIRO*         SUNNY     81  76  84 CALM      30.04S HX  88
EFFINGHAM*     SUNNY     84  67  55 SW5       30.04S HX  87
MARION         MOSUNNY   84  72  65 SW5       30.05S HX  89
MT. VERNON     SUNNY     84  70  61 SW6       30.04S HX  88
CENTRALIA*     SUNNY     85  73  67 SW6       30.03S HX  92
SALEM*         SUNNY     85  71  61 W3        30.03S HX  90
METROPOLIS*    SUNNY     84  72  68 CALM      30.05S HX  89
$$

ILZ067-068-072-073-078-083-087-091-031600-
SOUTHEAST ILLINOIS

CITY           SKY/WX    TMP DP  RH WIND       PRES   REMARKS
LAWRENCEVILLE  SUNNY     85  69  58 W6        30.03F HX  89
FLORA*         SUNNY     84  69  60 W3        30.03S HX  88
FAIRFIELD*     SUNNY     83  71  66 SW3       30.03S HX  87
HARRISBURG*    SUNNY     84  70  62 SW3       30.04F HX  89
ROBINSON*      SUNNY     84  69  62 SW7       30.04F HX  87
CARMI*         SUNNY     83  72  70 SW5       30.03F HX  88
$$

ABBREVIATIONS USED IN REMARKS
   TC - TEMPERATURE IN CELSIUS
  WCI - WIND CHILL INDEX
   HX - HEAT INDEX
  VSB - VISIBILITY
$$




USA.gov is the U.S. government's official web portal to all federal, state and local government web resources and services.